Regional Weather Roundup
Issued by NWS

Home | Current Version | Previous Version | Graphics & Text | Print | Product List | Glossary On
Versions: 1 2 3 4 5 6 7 8 9 10 11 12 13 14 15 16 17 18 19 20 21 22 23 24 25 26 27 28 29 30 31 32 33 34 35 36 37 38 39 40 41 42 43 44 45 46 47 48 49 50
000
ASUS43 KMPX 222001
RWRMN
WEATHER ROUNDUP FOR MINNESOTA
NATIONAL WEATHER SERVICE TWIN CITIES/CHANHASSEN MN
300 PM CDT FRI JUL 22 2016


NOTE: "FAIR" INDICATES FEW OR NO CLOUDS BELOW 12,000 FEET WITH NO
SIGNIFICANT WEATHER AND/OR OBSTRUCTIONS TO VISIBILITY. N/A MEANS
CURRENT SKY AND/OR WEATHER CONDITIONS ARE NOT AVAILABLE.

MNZ060>063-068>070-222100-
   Twin Cities Metro

CITY           SKY/WX    TMP DP  RH WIND       PRES   REMARKS
TWIN CITIES    MOSUNNY   95  56  26 VRB7G18   29.98F HX  93
ST PAUL        SUNNY     95  54  25 NE7       29.98F HX  93
CRYSTAL        SUNNY     96  53  23 VRB5      29.98F HX  93
BLAINE         SUNNY     95  55  26 E5        29.99F HX  93
LAKEVILLE      SUNNY     88  68  51 E6        30.00F HX  91
EDEN PRAIRIE   SUNNY     97  49  19 E8        29.98F HX  94
LAKEVILLE      SUNNY     88  68  51 E6        30.00F HX  91
SOUTH ST PAUL  SUNNY     94  41  16 E7        29.98F
LAKE ELMO      FAIR      91  61  35 CALM      30.00F HX  91
$$
MNZ001>005-007-008-013>017-022>024-027-028-222100-
   Northwest Minnesota

CITY           SKY/WX    TMP DP  RH WIND       PRES   REMARKS
HALLOCK        SUNNY     82  61  47 NW13      30.03S
ROSEAU         SUNNY     82  63  51 W10G17    30.02S
WARROAD        SUNNY     84  63  48 W10       30.01S
THIEF RVR FALL SUNNY     82  60  47 NW6       30.06R
CROOKSTON      SUNNY     82  64  54 N6        30.05R
FOSSTON        SUNNY     84  63  48 N5        30.06R
DETROIT LAKES  SUNNY     88  64  45 NW6       30.06F
MOORHEAD       CLOUDY    88  66  48 SW3       30.03S HX  90
PARK RAPIDS    MOSUNNY   91  68  46 W12       30.05R HX  95
MAHNOMEN       FAIR      85  66  53 N3        30.04S
$$
MNZ006-009>011-018-025>026-222100-
   North Central Minnesota

CITY           SKY/WX    TMP DP  RH WIND       PRES   REMARKS
BAUDETTE       SUNNY     85  58  39 NW14G20   30.01F
FLAG ISLAND    SUNNY     81  57  44 NW15      29.98F
INTL FALLS     SUNNY     84  57  39 W9G24     30.00S
WASKISH        SUNNY     84  66  54 W9        30.02S
BIG FORK       SUNNY     88  54  31 W7        30.03R
LONGVILLE        N/A     88  70  55 W7        30.03  HX  92
GRAND RAPIDS   SUNNY     88  64  44 NW13      30.04S
ORR            SUNNY     84  54  34 NW8       29.98S
COOK           SUNNY     86  55  35 W12G18    30.01S
WALKER         FAIR      87  69  55 NW7       30.03S HX  91
$$
MNZ012-019>021-037-222100-
   Northeast Minnesota

CITY           SKY/WX    TMP DP  RH WIND       PRES   REMARKS
DULUTH         MOSUNNY   89  62  40 NW12      30.00F
ELY            SUNNY     84  48  28 NW14G20   29.99F
HIBBING        SUNNY     86  54  33 W13G22    30.01S
EVELETH        SUNNY     86  53  31 NW13      30.02S
DULUTH HARBOR  MOSUNNY   91  68  46 NW12      29.96F HX  95
TWO HARBORS    SUNNY     91  64  40 NW12G21   29.96S HX  93
SILVER BAY     SUNNY     90  55  31 W3        29.95F
GRAND MARAIS     N/A     91  46  21 W8        29.90S
G MARAIS ARPRT SUNNY     82  48  30 W12G23    29.99S
$$
MNZ029>031-032-039>041-046>048-054>057-064-222100-
   West Central Minnesota

CITY           SKY/WX    TMP DP  RH WIND       PRES   REMARKS
FERGUS FALLS   SUNNY     90  61  37 S5        30.04S
WHEATON        SUNNY     91  70  49 S3        30.05R HX  97
MORRIS         SUNNY     91  63  38 E5        30.03S HX  92
ALEXANDRIA     SUNNY     90  60  36 NE6       30.07R
ELBOW LAKE     FAIR      88  66  47 SW3       30.05S HAZE    HX  90
WADENA         SUNNY     86  66  51 SW5       30.05R
GLENWOOD       SUNNY     91  63  38 NE3       30.06R HX  92
APPLETON       SUNNY     91  63  38 E7        30.01S HX  92
BENSON         SUNNY     90  57  33 E6        30.03R
ORTONVILLE     SUNNY     91  63  38 SE3       30.03R HX  92
MADISON        SUNNY     90  64  43 E6        30.02R HX  91
WILLMAR        FAIR      91  57  31 E7        30.03R HX  90
$$
MNZ033>034-036-042>043-049>051-058-059-222100-
   Central Minnesota

CITY           SKY/WX    TMP DP  RH WIND       PRES   REMARKS
ST CLOUD       SUNNY     91  64  40 CALM      30.02S HX  92
SAUK CENTRE    FAIR      88  61  39 N3        30.05R
PAYNESVILLE    SUNNY     88  62  41 N3        30.04R
AITKIN         SUNNY     91  63  38 W3        30.02R HX  92
PINE RIVER     SUNNY     90  68  48 W5        30.06R HX  93
BRAINERD       SUNNY     89  63  41 W8        30.04R HX  90
STAPLES        SUNNY     90  61  37 W7        30.05R
LONG PRAIRIE   FAIR      88  64  45 S3        30.06R
LITTLE FALLS   SUNNY     88  55  33 CALM      30.04R
LITCHFIELD     SUNNY     91  63  38 NE7       30.02R HX  92
BUFFALO        SUNNY     92  54  27 E5        30.01F
MAPLE LAKE     SUNNY     91  65  42 CALM      30.02S HX  92
HUTCHINSON     SUNNY     91  68  46 NE8       30.02S HX  95
$$
MNZ037-044-045-052-053-222100-
   East Central Minnesota

CITY           SKY/WX    TMP DP  RH WIND       PRES   REMARKS
PRINCETON      SUNNY     91  66  43 N5        30.01F HX  94
MORA           SUNNY     86  59  39 W5        30.03S
CAMBRIDGE      SUNNY     91  66  43 S3        30.00S HX  94
RUSH CITY      SUNNY     89  60  37 CALM      30.01F
MOOSE LAKE     SUNNY     90  64  43 W6        29.99F HX  91
HINCKLEY       FAIR      88  66  48 W7        30.01S HX  90
CLOQUET        SUNNY     90  61  37 NW7G16    30.01S
MCGREGOR       MOSUNNY   88  64  45 W5        30.02S
$$
MNZ071>073-080-081-089-090-097-098-222100-
   Southwest Minnesota

CITY           SKY/WX    TMP DP  RH WIND       PRES   REMARKS
MONTEVIDEO     SUNNY     93  72  49 E6        30.03R HX 100
GRANITE FALLS  SUNNY     92  69  47 E7        30.02R HX  96
CANBY          SUNNY     91  73  54 E8        30.02R HX  99
MARSHALL       PTSUNNY   90  78  68 E9        30.00R HX 104
REDWOOD FALLS  SUNNY     90  70  51 E7        29.99F HX  95
OLIVIA         SUNNY     90  66  45 SE6       30.00S HX  92
PIPESTONE      MOSUNNY   90  75  62 E7        30.02R HX 100
WINDOM         MOSUNNY   90  77  66 E8        30.00S HX 102
WORTHINGTON    CLOUDY    87  79  76 E9        30.01S HX 101
JACKSON        PTSUNNY   88  77  70 E10       30.01S HX 100
TRACY          MOSUNNY   91  79  69 E9        30.00S HX 107
SLAYTON        MOSUNNY   88  79  73 E12       30.03R HX 103
$$
MNZ065>067-074>077-082>085-091>093-222100-
   South Central Minnesota

CITY           SKY/WX    TMP DP  RH WIND       PRES   REMARKS
MANKATO        MOSUNNY   90  75  62 E9        29.98F HX 100
NEW ULM        SUNNY     90  75  62 E8        29.98F HX 100
ST JAMES       MOSUNNY   84  75  74 E6        29.99S HX  92
FAIRMONT       PTSUNNY   86  61  42 E9        29.98F
GLENCOE        SUNNY     92  65  40 E6        30.00S HX  94
FARIBAULT      MOSUNNY   90  77  66 NE5       30.00F HX 102
OWATONNA       MOSUNNY   90  77  66 E7        29.99F HX 102
WASECA         PTSUNNY   86  77  74 E7        30.00F HX  97
ALBERT LEA     SUNNY     88  79  74 SE8       30.00F HX 102
$$
MNZ078>079-086>088-094>096-222100-
   Southeast Minnesota

CITY           SKY/WX    TMP DP  RH WIND       PRES   REMARKS
ROCHESTER      MOSUNNY   88  80  77 VRB5      30.02F HX 104
RED WING       SUNNY     91  63  38 S7        29.98F HX  92
STANTON        SUNNY     90  70  51 SE5       29.98F HX  95
DODGE CENTER   MOSUNNY   91  77  62 SE6       30.01F HX 105
WINONA         SUNNY     90  72  55 NE3       29.99S HX  96
AUSTIN         PTSUNNY   86  77  74 E6        30.01F HX  97
PRESTON        CLOUDY    85  75  74 CALM      30.03F HX  93
$$
ABBREVIATIONS USED IN REMARKS
   TC - TEMPERATURES IN CELSIUS
  WCI - WIND CHILL INDEX
   HX - HEAT INDEX
  VSB - VISIBILITY
$$




USA.gov is the U.S. government's official web portal to all federal, state and local government web resources and services.